DW0326 Weather Reports


time (UTC)temp
C
wind
direction
speed
KPH
gust
KPH
rain 1hr
cm
rain 24hr
cm
rain mn
cm
humidity
%
barometer
mb
20260502181831 22 25 8.0 30.6 0.00 3.38 0.00 60 1015.8
20260502180931 22 20 11.3 25.7 0.00 3.76 0.00 61 1016.0
20260502163931 20 19 14.5 27.4 0.00 4.11 0.00 67 1016.3
20260502162131 20 15 8.0 20.9 0.00 4.47 0.00 71 1016.3
20260502161231 20 15 9.7 24.1 0.00 4.65 0.00 73 1016.3
20260502160331 19 13 11.3 20.9 0.00 4.78 0.00 73 1016.3
20260502130331 12 20 6.4 16.1 0.00 4.95 0.00 99 1014.8
20260502123631 12 0 0.0 0.0 0.00 4.98 0.00 99 1014.4
20260502121830 12 19 0.0 8.0 0.00 5.00 0.00 99 1014.2
20260502115131 12 5 1.6 11.3 0.00 5.00 0.00 98 1014.2
20260502114230 12 0 0.0 0.0 0.00 5.00 0.00 98 1014.2
20260502113331 12 6 0.0 8.0 0.00 5.00 0.00 98 1013.8
20260502112431 12 6 0.0 8.0 0.00 5.00 0.00 98 1013.8
20260502111530 12 6 1.6 9.7 0.00 5.00 0.00 98 1013.8
20260502110632 12 8 3.2 12.9 0.00 5.00 0.00 98 1013.4
20260502105731 12 13 1.6 12.9 0.00 5.00 0.00 98 1013.4
20260502104831 12 10 4.8 11.3 0.00 5.00 0.00 98 1013.2
20260502103930 12 9 6.4 17.7 0.00 5.00 0.00 98 1013.2
20260502103030 12 9 4.8 14.5 0.00 5.00 0.00 98 1013.2
20260502102130 12 7 1.6 9.7 0.00 5.00 0.00 98 1012.8
20260502101231 12 2 1.6 8.0 0.00 5.00 0.00 98 1012.8
20260502100331 12 0 0.0 0.0 0.00 5.00 0.00 98 1012.4
20260502090931 12 14 3.2 11.3 0.00 5.00 0.00 99 1011.7
20260502071230 12 20 8.0 19.3 0.00 5.00 0.00 100 1011.7
20260502065430 13 21 9.7 19.3 0.00 5.00 0.00 100 1011.7
20260502064530 13 24 8.0 19.3 0.00 5.00 0.00 100 1011.7
20260502063630 12 20 11.3 22.5 0.00 5.00 0.00 100 1011.5
20260502062731 13 29 6.4 20.9 0.00 5.00 0.00 100 1011.5
20260502061831 13 26 9.7 24.1 0.00 5.00 0.00 100 1011.4
20260502060930 13 25 6.4 20.9 0.00 5.00 0.00 100 1011.2
20260502060032 13 16 4.8 16.1 0.00 5.00 0.00 100 1011.2
20260502055131 13 36 6.4 19.3 0.00 5.00 0.00 100 1011.3
20260502054230 13 30 6.4 20.9 0.00 5.00 0.00 100 1011.3
20260502052430 13 31 9.7 20.9 0.00 5.00 0.00 100 1011.2
20260502051530 13 31 9.7 22.5 0.00 5.00 0.00 100 1011.2
20260502050631 13 25 8.0 22.5 0.00 5.00 0.00 100 1011.2
20260502045731 13 30 9.7 22.5 0.00 5.00 5.00 100 1011.2
20260502044830 13 25 9.7 22.5 0.00 5.00 5.00 100 1011.5
20260502043930 13 29 6.4 17.7 0.00 5.00 5.00 100 1011.4
20260502043030 13 21 11.3 22.5 0.00 5.00 5.00 100 1011.4
20260502042131 13 13 9.7 19.3 0.00 5.00 5.00 100 1011.2
20260502040331 13 14 11.3 22.5 0.03 5.00 5.00 100 1011.3
20260502035431 13 15 8.0 20.9 0.03 5.00 5.00 100 1011.0
20260502034530 13 26 6.4 16.1 0.03 5.00 5.00 100 1011.0
20260502033630 13 21 11.3 24.1 0.03 5.00 5.00 100 1010.8
20260502032731 13 21 11.3 22.5 0.03 5.00 5.00 100 1010.8
20260502031830 13 14 11.3 29.0 0.03 4.98 4.98 100 1010.3
20260502030931 13 22 8.0 22.5 0.05 5.92 4.98 100 1009.6
20260502030030 13 23 12.9 24.1 0.08 5.92 4.98 100 1009.6
20260502025131 14 14 9.7 22.5 0.08 5.92 4.98 100 1009.5
20260502020630 15 9 6.4 17.7 0.10 5.87 4.93 100 1009.4
20260502015731 15 14 6.4 17.7 0.10 5.84 4.90 100 1009.4
20260502013930 15 12 8.0 19.3 0.10 5.82 4.88 100 1008.4
20260502013030 15 14 9.7 19.3 0.10 5.82 4.88 100 1008.4
20260502012130 15 13 8.0 20.9 0.13 5.82 4.88 100 1008.4
20260502011230 15 11 9.7 17.7 0.13 5.79 4.85 100 1008.4
20260502010331 15 7 6.4 17.7 0.15 5.74 4.80 100 1008.5
20260502005431 15 11 8.0 20.9 0.28 5.74 4.80 100 1007.3
20260502004531 15 13 9.7 22.5 0.30 5.71 4.78 100 1007.3
20260502003630 15 18 8.0 19.3 0.33 5.71 4.78 100 1007.2
20260502002731 15 18 9.7 19.3 0.36 5.71 4.78 100 1007.2
20260502000931 15 28 8.0 25.7 0.33 5.64 4.72 100 1007.5
20260502000030 15 18 6.4 16.1 0.28 5.54 4.60 100 1007.5
20260501235130 15 23 8.0 22.5 0.18 5.44 4.50 100 1006.1
20260501234231 15 30 8.0 37.0 0.13 5.38 4.47 100 1006.1
20260501232431 15 37 8.0 19.3 0.10 5.36 4.42 100 1006.9
20260501230630 16 16 8.0 22.5 0.05 5.28 4.37 100 1006.4
20260501224831 16 36 8.0 20.9 0.28 5.26 4.32 100 1006.0
20260501223930 16 36 9.7 22.5 0.51 5.26 4.32 100 1006.0
20260501223031 16 33 11.3 22.5 0.66 5.26 4.32 100 1006.0
20260501222130 16 33 9.7 24.1 0.74 5.26 4.32 100 1006.4
20260501221231 16 20 9.7 24.1 0.76 5.26 4.32 100 1006.4
20260501220331 16 25 8.0 19.3 0.74 5.23 4.29 100 1006.8
20260501215430 16 21 8.0 19.3 0.58 5.08 4.14 100 1006.1
20260501213630 16 12 6.4 17.7 0.30 4.70 3.76 100 1006.6
20260501212730 16 27 6.4 14.5 0.23 4.57 3.63 100 1006.6
20260501211830 16 30 6.4 17.7 0.41 4.52 3.58 100 1006.1
20260501210930 16 37 3.2 17.7 0.41 4.50 3.56 100 1005.0
20260501210030 16 31 6.4 17.7 0.43 4.50 3.56 100 1005.0
20260501205130 16 32 8.0 20.9 0.43 4.47 3.53 100 1005.0
20260501204230 17 28 8.0 20.9 0.53 4.45 3.51 100 1005.0
20260501203330 17 18 8.0 16.1 0.56 4.37 3.45 100 1005.7
20260501202431 17 22 3.2 11.3 0.51 4.29 3.38 100 1005.0
20260501200631 17 24 4.8 17.7 0.33 4.09 3.15 100 1004.9
20260501195730 17 34 4.8 14.5 0.33 4.06 3.12 100 1004.9
20260501193931 17 22 8.0 17.7 1.09 3.84 2.92 100 1004.5
20260501193030 17 44 3.2 14.5 1.09 3.81 2.87 100 1004.5
20260501192130 17 56 3.2 9.7 1.09 3.76 2.82 100 1004.9
20260501191231 17 51 3.2 16.1 1.42 3.76 2.82 100 1004.9
20260501190330 17 60 8.0 19.3 1.75 3.76 2.82 100 1004.4
20260501185430 17 77 4.8 17.7 1.73 3.71 2.79 100 1006.5
20260501184530 17 120 6.4 19.3 1.09 3.02 2.16 100 1006.5
20260501183630 17 300 8.0 20.9 0.81 2.72 1.78 100 1003.7
20260501182730 17 65 8.0 19.3 0.79 2.69 1.75 100 1003.7